Wind_Speed
6 11 6 6 6 8 11 15 18 20 23 25 27 28 28 30 33 35 37 40 41 41 44 46 47 46 43 38 32 30 29 29 29 28 29 29 29 30 30 30 30 30 27 27 27 27 26 25 24 25 27 28 29 30 31 32 33 36 38 39 41 44 46 47 49 52 54 56 59 61 63 65 67 68 69 69 69 70 71 71 71 69 67 64 60 56 51 46
7 12 11 5 5 5 7 12 17 19 19 21 23 23 24 26 29 31 33 35 38 39 42 44 46 45 42 35 29 27 28 27 24 24 25 25 27 28 29 30 29 30 31 32 34 34 33 31 29 29 29 28 29 30 30 31 34 38 40 42 44 46 47 49 52 54 55 58 60 63 65 66 67 67 67 68 68 69 70 70 68 66 64 61 56 51 47 42
9 10 15 11 4 4 5 8 14 18 19 19 21 20 20 22 26 27 29 30 33 35 37 42 44 43 41 35 30 29 30 28 23 22 22 22 26 27 29 30 27 25 26 28 30 33 35 35 35 35 34 31 30 31 32 34 36 39 41 43 45 46 48 50 53 55 57 60 63 65 65 65 65 66 66 67 68 68 68 67 65 64 61 57 52 47 43 38
10 9 16 17 11 5 5 7 11 15 18 19 21 21 19 19 22 24 25 27 31 32 33 37 40 41 40 37 32 31 33 32 27 24 22 21 22 25 29 32 30 25 21 20 20 23 27 31 32 33 34 33 32 33 36 38 40 41 42 44 46 48 50 52 56 59 61 63 64 64 63 64 65 65 66 67 67 67 66 64 63 61 57 52 48 44 38 34
12 8 14 19 18 11 7 7 8 11 16 19 20 21 20 19 20 22 22 24 27 30 32 33 36 38 39 37 33 32 35 36 33 29 26 24 22 24 28 32 33 30 26 24 22 21 22 24 25 27 29 30 32 35 38 39 41 44 46 47 49 51 53 57 59 61 62 62 61 61 63 64 64 65 66 67 67 65 63 62 61 57 53 49 45 39 35 32
14 7 12 18 21 18 13 10 8 8 12 17 19 20 20 20 20 21 22 23 23 25 29 32 34 35 36 36 33 31 35 38 38 33 28 27 26 26 27 30 31 31 30 30 29 27 26 26 26 28 29 31 34 37 38 39 43 46 48 50 52 55 58 59 60 60 59 59 60 61 63 63 64 65 65 65 64 62 61 60 57 52 48 45 40 36 32 30
14 8 11 17 21 21 18 15 12 9 10 13 17 20 21 21 21 21 21 23 23 22 25 28 30 32 34 34 32 31 32 36 38 37 33 30 29 28 27 28 27 27 29 30 31 31 31 31 31 34 36 37 39 42 42 44 47 49 51 53 55 57 58 58 57 58 58 60 61 61 62 63 63 64 64 63 62 60 59 57 52 48 45 41 37 33 31 30
14 10 10 16 21 23 22 19 17 14 12 11 14 18 21 22 21 21 21 23 23 23 24 25 26 28 30 32 32 32 32 34 36 38 37 33 32 30 26 27 26 25 27 28 31 33 34 34 36 39 42 43 44 46 47 48 50 52 53 55 56 56 56 56 57 58 59 60 60 60 61 62 63 63 62 61 60 59 57 52 48 45 41 37 34 31 30 29
13 11 12 16 21 24 25 23 20 18 16 14 13 14 18 22 23 23 22 23 23 23 24 25 25 26 27 28 29 30 32 34 34 36 37 35 36 34 31 32 30 30 31 31 33 36 36 39 42 43 45 46 46 48 49 50 51 53 53 54 54 54 55 56 57 59 59 59 59 60 61 62 62 61 60 59 59 56 52 47 45 42 38 34 32 30 29 29
12 11 12 16 21 25 27 27 24 21 20 18 17 15 15 18 22 24 24 24 24 25 25 25 25 25 26 26 27 27 29 31 32 33 34 35 36 36 35 36 35 36 37 36 38 39 39 42 43 44 46 47 48 49 50 51 51 52 52 53 53 54 56 57 58 58 58 58 59 60 60 60 60 59 58 58 56 51 47 45 43 39 35 32 31 29 29 28
13 10 11 15 21 26 29 29 27 25 23 21 21 20 18 17 19 21 24 25 25 27 28 28 28 27 27 27 27 27 27 28 29 29 31 32 33 34 35 35 36 38 38 38 39 40 41 42 44 45 47 48 49 49 50 50 50 51 52 53 54 55 56 57 57 57 57 58 59 59 58 58 58 58 58 56 51 46 44 43 40 36 34 32 30 29 28 26
15 11 10 13 18 25 30 31 29 28 27 24 23 23 23 22 21 21 22 24 25 27 28 30 31 31 30 29 29 29 29 29 29 29 30 30 31 33 33 34 35 37 38 39 41 42 42 43 45 46 47 48 48 48 49 49 50 52 53 54 54 55 56 56 56 55 56 57 58 57 57 56 57 58 56 51 46 43 42 40 37 35 33 31 30 28 27 24
17 13 10 11 14 20 27 31 31 31 30 28 26 24 24 25 25 25 25 25 25 26 27 29 31 32 32 32 31 31 31 31 32 32 32 32 33 34 35 36 37 38 39 41 42 43 43 44 45 45 46 46 47 47 48 50 51 52 53 54 55 55 55 54 54 55 56 56 56 57 56 56 57 56 51 45 43 42 41 38 35 33 32 30 29 27 25 23
17 16 12 11 11 15 21 28 32 32 32 31 29 26 26 26 26 27 28 28 27 27 28 28 29 30 32 33 33 33 32 32 32 33 33 33 34 35 36 37 38 38 39 40 41 42 42 43 44 44 45 46 47 48 49 51 52 53 54 54 54 54 53 52 54 55 55 55 56 56 56 56 56 51 45 42 42 41 39 36 34 33 31 29 27 25 23 22
16 17 14 12 12 13 16 23 29 31 31 32 31 29 27 27 27 28 28 29 28 28 29 29 30 30 31 32 33 34 34 33 33 33 33 33 34 34 35 36 36 37 38 39 40 41 42 43 44 45 46 47 48 49 51 52 52 53 53 53 53 51 51 53 55 54 54 55 56 56 56 56 53 45 42 41 40 38 36 35 33 32 30 28 25 23 22 21
15 17 16 14 13 13 14 18 24 30 31 31 32 32 30 29 29 29 29 29 29 29 29 29 29 30 30 31 32 33 33 34 34 33 33 33 33 34 35 35 36 38 39 40 41 43 44 45 46 47 48 49 50 50 51 51 51 52 51 51 50 49 51 54 54 53 54 55 56 56 56 53 47 42 40 40 38 36 35 33 33 31 29 27 24 22 21 21
14 16 17 16 15 14 14 16 21 27 31 32 32 33 32 32 31 31 30 30 30 30 31 31 30 31 31 31 32 32 33 33 34 34 34 34 35 36 37 38 39 41 42 43 44 45 47 48 48 49 50 50 49 49 49 50 50 50 50 49 49 50 52 53 53 53 54 55 56 57 54 47 42 41 40 39 37 35 34 32 32 30 28 25 24 22 21 21
14 15 17 18 17 16 15 15 18 23 29 34 35 34 34 34 34 34 33 32 32 32 32 32 32 32 32 33 33 33 34 34 35 36 36 37 38 39 40 42 43 44 45 46 47 48 49 49 49 49 49 48 47 47 48 49 49 49 49 49 50 51 53 52 52 53 54 56 57 56 50 42 40 41 40 38 36 34 33 32 31 30 27 24 22 22 22 21
16 16 17 19 18 18 16 15 16 20 25 32 36 37 36 36 37 36 35 35 35 35 34 34 34 35 35 35 35 35 36 37 37 38 39 40 41 42 43 44 45 45 46 47 48 48 49 49 48 47 46 46 46 47 47 48 49 49 49 49 50 52 53 52 52 53 55 56 56 52 46 41 40 39 38 37 36 33 33 33 31 30 27 24 22 22 22 22
17 17 18 20 19 19 18 16 15 17 21 27 34 38 39 38 39 39 38 38 38 38 38 38 38 38 38 39 39 39 40 40 41 41 42 43 43 44 44 45 45 45 46 46 46 47 47 46 46 45 45 46 46 46 47 49 49 49 49 49 51 52 53 53 53 54 55 56 53 48 42 41 41 38 36 35 35 33 33 32 31 29 27 25 23 23 23 22
18 18 19 21 21 20 20 19 17 16 18 22 28 35 40 41 41 41 41 40 41 40 41 41 42 42 42 42 42 42 43 43 43 44 44 44 44 45 45 45 44 44 44 44 45 45 45 44 44 44 45 45 46 47 48 48 48 47 48 49 51 52 53 53 54 54 55 52 48 44 41 41 40 38 35 33 33 33 32 31 30 29 27 26 25 25 24 24
19 19 20 23 23 21 20 20 19 17 16 18 22 28 35 41 44 44 44 43 42 42 42 41 41 42 42 42 43 42 43 42 42 43 43 43 43 43 44 43 43 43 44 44 45 44 43 42 43 44 45 46 46 46 46 46 46 47 48 50 52 53 53 53 53 54 53 48 43 42 41 39 37 36 34 32 31 31 31 30 30 29 27 26 26 26 26 26
21 21 21 24 26 24 22 21 21 19 17 16 19 23 29 35 40 44 46 46 46 45 44 43 42 41 41 42 42 42 42 42 42 42 42 42 43 43 44 44 44 44 45 45 44 42 41 42 44 45 46 47 46 45 45 45 46 47 49 51 53 53 52 52 52 51 49 45 42 41 39 37 35 33 32 32 30 30 30 30 29 29 28 27 26 26 25 26
23 23 23 25 27 27 24 22 22 21 19 17 17 19 23 28 33 39 44 47 49 49 48 46 45 43 42 41 41 42 42 42 42 43 43 44 44 44 44 44 44 44 44 43 41 41 42 44 46 46 47 45 44 44 45 46 47 49 51 52 52 52 52 51 50 48 44 41 41 39 36 35 34 32 30 30 30 30 29 29 29 28 28 27 26 26 25 25
26 25 25 26 28 29 26 24 23 22 21 19 18 18 19 22 26 31 36 41 46 49 50 50 48 46 44 42 41 40 40 39 39 40 41 42 43 42 42 42 42 42 42 41 42 43 45 46 46 45 44 42 43 44 46 47 49 51 51 51 51 51 51 49 47 44 41 39 38 36 34 33 33 32 29 28 28 29 29 29 28 28 28 28 27 26 25 25
29 27 27 27 29 31 29 26 24 23 22 21 19 18 17 18 20 24 29 33 38 43 48 51 52 51 49 47 44 42 40 38 38 37 37 38 39 40 40 41 42 42 41 42 44 46 46 45 43 41 41 43 45 47 48 50 51 51 51 51 51 50 47 45 43 40 39 37 34 32 32 31 32 32 30 28 27 27 28 29 29 29 29 28 27 26 25 25
33 31 30 30 30 31 32 29 26 25 24 22 21 19 18 17 17 19 22 25 30 35 40 45 50 53 53 52 50 47 44 43 42 40 39 38 38 38 40 41 41 41 42 44 46 46 44 42 40 42 44 47 48 50 51 52 51 51 51 50 48 46 43 41 40 38 36 34 31 29 29 29 30 31 31 30 28 27 27 29 29 29 29 28 28 27 26 25
37 34 33 32 32 32 33 32 29 27 25 23 23 21 19 18 17 16 17 19 25 28 31 36 42 47 51 53 53 51 50 49 47 45 43 41 39 38 39 40 41 42 44 45 45 43 41 41 43 45 47 49 51 52 53 52 50 49 47 46 44 42 40 38 36 35 33 31 29 27 27 27 28 29 30 29 28 28 27 28 29 29 28 28 27 27 27 26
40 38 36 35 35 34 34 34 32 29 27 25 24 23 21 19 17 15 14 18 23 25 27 30 34 38 43 48 52 53 54 53 51 49 47 44 42 40 39 40 42 44 45 45 43 42 42 44 46 47 49 51 52 52 51 49 47 45 43 43 41 38 36 34 32 32 32 31 29 27 26 26 26 27 27 28 28 28 28 29 29 29 28 28 28 28 28 27
43 41 39 38 37 36 35 35 35 32 29 27 26 25 23 20 17 14 13 19 25 25 25 27 29 32 36 39 44 48 51 52 50 49 46 44 42 40 40 42 44 45 46 44 43 44 45 46 47 49 51 51 50 49 47 45 43 42 42 41 38 35 33 31 30 30 31 32 30 28 28 27 27 27 26 26 27 28 28 29 29 29 29 29 29 29 29 29
45 44 42 41 40 38 37 36 36 35 32 29 27 26 24 22 17 14 17 23 26 24 23 25 27 29 31 33 35 38 41 44 44 43 42 41 40 40 42 44 46 46 46 45 46 46 46 47 49 51 51 49 47 46 44 42 41 40 41 39 34 33 31 29 29 30 31 33 32 31 30 29 28 30 29 28 27 27 29 30 31 30 30 30 30 30 31 31
47 46 44 43 42 41 39 38 38 37 34 32 29 27 25 22 18 19 24 26 24 22 23 24 25 26 29 30 32 33 34 37 39 40 41 42 42 42 44 46 47 47 47 47 47 46 47 50 52 52 50 47 45 43 42 41 40 41 40 35 32 31 29 28 29 30 32 35 35 34 32 30 30 31 32 32 30 29 30 31 32 33 33 32 31 31 31 31
50 48 47 45 44 43 41 40 39 38 37 34 31 29 26 22 21 26 29 26 23 23 23 21 22 24 26 29 32 32 33 34 36 39 41 43 44 45 46 46 48 48 47 47 47 47 50 53 53 52 50 46 43 42 42 41 40 41 38 33 31 29 27 28 29 30 32 35 38 37 35 33 31 31 33 33 32 31 30 31 34 35 36 35 34 32 32 31
52 51 49 47 46 45 44 42 40 39 39 36 33 30 25 23 28 33 31 26 24 24 23 21 21 22 24 28 31 33 34 34 34 36 38 40 43 45 46 48 49 49 48 47 48 49 50 52 53 52 49 45 44 43 41 41 41 40 35 32 31 28 26 27 29 29 31 33 38 40 39 37 34 33 34 34 33 32 32 32 34 36 38 39 38 36 34 33
55 53 51 49 47 47 46 44 42 40 39 37 36 32 27 28 35 36 32 28 26 25 25 22 21 22 23 26 29 31 34 35 36 35 35 36 37 39 41 43 43 44 42 41 42 43 44 46 48 49 47 43 42 42 41 41 40 36 33 32 31 29 27 28 28 30 30 32 37 41 42 41 38 36 36 35 35 34 34 34 35 37 39 40 41 40 38 36
58 56 52 50 49 48 47 45 44 41 39 38 37 34 32 35 38 38 33 30 28 27 26 25 23 23 23 24 26 28 31 34 36 37 36 36 36 35 36 37 37 37 37 37 37 38 39 41 43 44 42 40 40 41 42 41 37 33 33 33 31 29 29 29 29 31 31 32 36 41 44 44 42 40 39 38 36 35 36 37 37 39 40 41 43 42 40 39
60 59 55 52 50 49 49 48 46 42 40 39 37 37 39 40 40 39 35 32 30 28 28 28 27 25 25 25 25 26 27 30 34 36 38 40 39 38 38 39 39 38 38 38 37 37 38 39 40 40 39 39 40 41 41 38 32 30 32 33 32 30 30 31 31 32 33 33 35 40 45 46 44 43 42 41 39 36 36 38 38 39 41 42 43 43 42 41
60 61 58 55 52 51 51 50 48 45 41 40 39 39 41 43 44 43 38 35 33 31 30 30 29 27 26 26 26 25 25 27 31 33 36 40 40 41 42 42 42 41 40 40 38 37 37 37 37 38 38 38 39 37 35 33 30 30 33 33 32 31 31 33 33 34 35 35 35 38 44 48 47 45 44 43 41 39 38 38 38 39 41 41 42 42 42 42
60 61 60 59 55 53 53 51 49 47 42 40 41 41 41 45 48 46 42 39 36 33 33 33 32 30 28 27 27 26 25 27 29 30 33 36 38 41 44 44 44 43 42 41 39 37 36 35 34 35 35 34 33 32 30 30 30 31 33 34 33 33 33 33 35 36 37 37 38 38 43 49 49 47 46 45 44 42 40 40 41 41 41 40 40 40 41 42
62 60 61 62 59 56 55 52 50 47 44 43 45 44 44 47 48 48 46 43 39 36 35 35 34 32 30 29 29 27 27 27 28 28 30 33 35 38 41 43 44 44 42 41 39 37 35 33 31 31 32 31 31 30 29 30 32 33 33 34 35 35 34 35 36 38 39 40 41 40 43 49 50 47 47 47 45 42 41 42 43 43 42 41 39 38 39 41
64 61 61 63 62 60 57 54 51 49 47 48 48 47 47 48 48 47 47 46 43 40 38 37 36 35 33 32 31 29 28 28 28 28 29 31 33 35 38 40 42 42 41 40 38 36 34 32 29 29 31 31 31 31 29 30 33 34 34 35 36 36 36 37 37 39 41 42 44 43 43 48 50 47 48 48 44 43 43 43 45 44 42 41 39 37 37 38
63 61 63 65 64 62 59 55 54 52 50 50 51 50 49 50 49 48 47 47 47 44 42 40 38 37 36 34 33 31 30 29 29 29 29 30 30 32 34 36 38 39 40 38 38 36 33 31 29 29 31 32 32 32 31 32 34 36 36 36 37 37 38 38 38 40 41 43 46 45 43 48 51 48 48 48 45 44 44 44 45 43 41 39 38 36 35 35
64 62 64 66 64 64 61 57 54 53 51 51 52 52 52 52 51 49 47 47 47 46 46 44 42 40 39 37 35 33 31 31 30 30 30 30 29 30 31 33 35 36 37 37 37 36 34 32 30 30 31 32 33 34 34 35 35 36 37 37 37 38 39 40 40 40 40 42 46 43 41 47 53 49 49 48 45 45 45 44 43 41 39 38 36 35 34 34
69 68 67 67 64 63 61 58 56 55 55 54 55 55 54 54 53 51 49 48 48 47 47 47 46 44 42 39 37 35 34 33 32 31 31 31 30 29 29 31 32 33 35 36 35 35 34 32 31 32 32 33 35 36 36 37 37 36 37 37 37 38 40 40 40 39 38 41 43 41 39 45 50 50 49 47 45 45 45 42 40 38 37 37 37 35 35 34
75 73 71 70 67 63 60 58 58 58 58 57 57 56 56 56 55 54 52 50 49 48 48 48 47 47 45 43 40 38 37 35 34 32 32 31 31 30 29 29 30 31 32 33 34 35 34 33 33 34 34 35 37 38 38 38 37 37 37 38 38 39 40 39 37 37 37 37 38 40 40 40 45 49 47 44 42 43 42 40 38 36 36 35 36 36 36 35
79 75 74 74 72 66 61 59 59 59 59 59 58 58 57 57 56 56 55 53 50 49 48 48 47 48 48 46 44 42 40 38 36 34 33 32 31 30 30 29 29 30 31 31 33 33 33 33 34 34 35 36 37 38 38 38 37 37 38 38 39 39 38 37 36 36 36 33 34 40 39 35 40 46 43 40 40 39 39 38 37 36 36 34 34 34 34 33
83 79 77 77 76 71 65 62 61 61 61 62 60 59 59 59 60 59 58 56 53 50 49 49 48 48 48 49 48 46 44 41 39 36 34 33 32 30 30 30 30 29 30 31 31 32 32 33 34 34 35 36 37 38 38 37 37 38 38 38 38 37 36 37 36 35 34 30 31 38 36 31 37 41 38 37 39 38 38 38 36 36 35 33 32 31 30 29
83 82 81 81 80 76 70 67 65 64 65 65 64 63 63 62 62 61 60 59 57 54 52 50 50 50 50 50 50 49 47 45 42 40 38 35 32 31 31 31 31 30 30 30 31 31 32 33 34 35 36 37 37 37 37 37 37 37 36 36 36 37 38 38 37 35 34 30 30 33 32 32 36 35 33 35 36 37 38 37 34 34 33 32 30 29 28 27
81 83 84 84 83 79 75 73 72 69 67 67 66 65 65 64 63 63 62 61 60 58 55 52 51 52 52 51 51 50 50 48 45 43 40 36 34 33 32 31 31 32 31 31 31 31 32 33 35 35 36 36 36 36 36 36 34 34 34 34 36 39 41 40 37 36 35 31 29 30 30 34 36 33 32 35 35 35 35 33 31 31 31 32 31 30 29 28
81 82 84 86 85 82 78 77 77 74 71 69 67 65 66 66 65 65 64 63 61 60 58 54 54 54 53 53 52 51 51 51 48 45 42 38 36 35 33 32 33 33 32 32 32 32 32 33 35 35 35 35 36 35 35 34 33 32 33 34 39 42 42 40 38 38 36 32 30 30 30 34 36 33 33 35 34 33 33 31 30 31 31 32 32 32 31 31
85 83 84 86 86 85 82 80 80 79 75 71 68 68 69 68 68 68 68 65 63 62 60 58 58 57 55 53 51 51 52 52 50 48 44 41 40 37 35 35 34 34 34 33 33 33 33 34 35 35 34 36 37 35 34 35 32 30 33 39 42 42 41 40 40 40 37 33 31 31 32 34 36 35 35 36 34 33 32 31 32 32 32 33 33 33 32 32
90 88 87 86 86 86 85 83 83 81 77 74 72 72 72 71 72 73 71 68 66 65 63 63 62 60 57 55 53 53 54 53 51 49 46 45 43 41 39 38 37 36 36 35 35 35 34 34 35 35 34 37 38 35 35 34 30 30 37 42 43 42 41 41 41 41 39 35 32 32 34 35 36 36 36 37 35 34 34 33 33 34 34 33 33 33 32 32
Wind_Direction
264 224 175 113 109 123 138 144 144 145 152 154 146 138 135 137 140 141 143 146 148 152 156 155 154 153 152 151 151 155 157 159 163 166 171 177 180 186 191 195 200 208 218 225 230 240 249 253 258 261 264 266 266 269 271 273 277 280 282 285 285 288 291 292 294 296 296 297 298 300 302 303 305 306 308 310 311 313 315 316 317 318 318 318 318 317 317 317
311 243 218 170 117 116 135 149 153 152 154 162 161 153 144 142 146 146 146 149 151 155 159 161 159 156 155 152 151 156 159 157 164 173 178 187 191 195 199 199 204 212 219 223 228 237 246 253 258 262 266 269 270 274 277 277 279 280 282 286 286 289 293 294 295 297 297 299 300 301 302 303 305 307 309 310 312 314 315 317 317 318 318 318 317 316 316 316
334 265 235 220 175 137 151 157 160 161 160 167 173 171 162 152 151 152 151 152 154 156 161 165 164 162 161 160 159 162 163 164 171 177 181 189 193 198 201 200 204 212 218 224 229 234 242 247 251 256 262 268 272 277 278 277 279 280 281 284 286 289 292 295 296 297 298 300 301 301 303 305 307 308 310 311 313 315 316 317 318 319 318 317 316 315 315 316
342 284 250 235 224 200 187 176 170 172 172 173 177 180 178 170 162 160 158 157 160 162 163 168 170 169 169 169 170 170 171 174 177 181 191 196 196 200 202 203 209 218 225 229 232 234 239 243 247 252 258 267 273 277 276 276 281 282 283 286 289 291 292 296 297 297 299 300 301 303 305 307 308 309 311 313 314 315 316 317 318 318 317 316 315 315 315 316
347 290 260 244 234 228 217 202 187 182 184 184 184 183 182 181 177 173 171 166 166 169 169 171 175 177 177 178 179 179 179 180 181 186 195 201 205 206 206 210 217 228 236 239 243 247 249 250 253 257 263 270 272 274 276 279 284 283 284 289 292 294 296 297 298 298 299 301 303 305 307 308 309 311 313 314 315 316 317 318 318 318 316 315 314 314 315 316
347 300 261 249 240 233 226 221 217 202 194 193 193 193 190 186 184 182 182 180 178 177 176 177 180 183 185 185 186 187 187 187 188 192 196 202 207 209 211 215 221 231 237 242 249 255 260 264 266 270 275 276 274 279 281 282 286 286 287 291 293 296 297 298 298 299 301 303 306 307 308 310 311 313 314 315 316 316 317 318 318 317 315 314 313 314 316 316
339 310 262 250 244 238 231 225 226 228 214 202 198 200 201 198 193 188 186 187 188 188 186 184 185 187 190 193 194 196 196 196 197 198 201 206 208 212 215 219 226 234 241 248 252 258 265 269 272 277 281 282 282 285 283 283 288 291 292 293 295 296 296 297 299 301 303 305 307 308 310 312 313 314 315 315 316 317 318 318 317 315 314 313 313 315 316 316
331 306 266 250 246 242 237 231 228 231 230 219 206 202 205 208 206 202 197 194 193 192 192 193 194 195 197 200 203 206 206 206 206 206 209 212 214 220 224 227 235 241 247 254 257 263 269 270 273 278 282 283 284 284 285 288 290 292 293 293 294 295 297 299 301 303 305 306 308 310 312 313 314 315 315 316 317 318 318 317 315 314 313 312 314 314 315 316
327 301 270 250 246 244 241 237 233 232 233 230 218 206 205 209 212 214 212 209 205 200 198 197 199 202 205 208 211 215 216 215 215 215 218 220 222 227 232 236 243 248 255 263 265 270 272 272 276 280 282 283 284 286 288 291 290 291 292 293 294 296 298 300 302 304 306 308 309 311 313 313 314 315 315 316 318 318 317 316 314 313 312 313 314 314 315 315
325 297 273 253 246 245 243 240 237 236 236 236 230 219 209 208 211 216 219 220 219 215 212 209 209 211 212 214 216 220 224 224 225 226 228 231 231 236 240 245 251 255 262 268 270 273 273 274 278 280 282 284 285 287 288 289 290 291 292 294 296 297 299 301 304 306 307 309 311 312 313 314 315 316 317 318 318 318 316 315 314 313 313 314 314 314 315 314
327 296 274 258 246 243 243 242 240 239 239 239 238 233 225 215 209 212 218 223 225 225 224 222 222 223 223 223 225 227 231 232 235 237 239 241 242 246 250 253 257 260 265 268 270 273 274 275 278 279 281 282 284 285 287 288 290 292 293 295 296 298 301 303 306 307 309 311 312 313 314 315 316 318 319 319 318 317 316 315 313 314 314 315 314 315 314 313
330 300 272 262 251 243 241 241 241 240 241 241 240 239 236 231 223 217 216 219 224 227 229 230 229 230 231 232 233 235 237 238 240 242 245 247 249 253 255 257 259 262 265 267 270 272 274 275 277 278 279 281 283 285 287 288 290 292 294 296 298 301 303 305 307 308 310 312 313 313 314 316 318 320 320 319 317 317 316 315 314 315 315 315 315 315 314 312
331 308 273 261 256 246 241 240 241 240 240 242 241 239 237 237 236 232 227 225 227 229 231 233 234 235 236 237 238 239 240 241 244 246 248 250 252 255 257 258 260 262 264 267 269 271 273 274 275 277 279 281 283 285 287 289 291 294 296 298 300 302 304 305 308 310 311 313 313 314 315 318 320 321 319 317 317 317 316 315 315 316 316 316 316 315 313 312
330 313 282 260 257 254 245 240 239 240 239 239 240 239 236 236 237 237 237 235 234 235 236 237 238 239 241 242 242 243 244 244 245 247 249 250 252 254 256 258 260 262 265 267 269 271 272 274 275 277 279 281 284 286 289 291 293 296 297 299 301 303 304 306 309 311 312 313 314 315 317 320 321 320 317 317 317 317 317 316 317 318 318 317 316 314 312 311
326 314 288 265 255 256 253 245 240 239 239 238 238 238 237 235 235 236 238 239 237 237 239 240 241 242 244 245 246 247 247 248 248 249 250 252 253 255 257 259 262 264 266 268 270 272 273 275 276 278 281 283 286 288 291 293 294 296 298 300 301 303 304 307 310 312 313 314 315 317 320 321 320 317 316 317 318 318 317 317 319 320 319 318 316 314 312 310
318 315 293 270 256 253 255 251 243 237 236 237 237 236 236 235 234 234 235 236 236 236 238 240 240 241 242 243 245 247 248 250 251 252 253 254 256 258 260 262 264 266 268 269 271 273 274 276 278 280 282 285 287 289 292 293 295 297 299 300 301 303 305 308 310 311 313 314 316 318 321 320 317 315 316 317 318 318 318 319 320 322 321 319 316 314 312 310
305 311 296 274 258 251 252 254 249 239 233 233 236 235 235 235 235 234 233 233 234 235 236 238 237 238 238 239 240 242 245 248 250 252 254 257 258 260 262 264 265 267 268 270 271 273 275 277 279 281 283 285 288 290 292 294 296 298 299 299 300 302 305 308 310 312 314 315 317 319 321 318 313 314 317 318 319 319 319 320 322 323 323 320 317 315 313 311
292 301 294 278 262 252 249 252 252 245 235 230 232 234 234 233 233 234 233 232 232 233 234 235 236 236 236 237 238 240 242 243 246 249 251 254 256 258 260 262 264 266 268 270 271 273 275 277 279 281 283 286 289 291 294 295 296 297 297 297 299 301 305 308 310 313 315 317 318 319 318 315 313 316 318 319 320 319 319 321 323 323 323 321 318 316 314 312
281 289 287 276 263 254 249 248 251 250 242 233 230 231 232 232 232 232 233 233 233 233 233 234 235 236 236 236 237 239 241 242 244 247 249 251 253 256 258 260 262 265 267 269 271 273 275 277 279 282 285 288 290 293 294 295 295 295 295 296 299 303 306 308 311 313 316 318 318 317 316 314 315 317 318 319 320 320 319 321 323 323 322 320 318 315 314 312
271 278 281 273 261 253 250 248 248 250 248 241 233 230 230 232 232 232 232 233 234 235 234 235 235 236 237 238 239 241 242 244 246 248 250 252 254 256 258 260 262 265 267 269 271 273 275 278 281 284 287 290 292 293 293 292 292 292 294 297 302 305 307 309 311 314 317 318 316 315 314 315 316 317 318 319 320 320 320 321 323 324 322 318 316 314 313 311
263 268 273 271 261 251 247 246 247 248 250 247 241 234 231 231 232 232 232 232 233 234 236 237 237 238 239 240 242 243 245 246 248 249 251 253 255 257 259 261 262 264 267 269 272 275 278 280 283 286 289 291 291 290 289 288 290 293 297 301 304 306 308 310 312 315 317 316 313 313 314 315 315 316 318 319 319 319 319 319 321 323 322 318 315 314 313 312
257 261 265 267 262 252 246 245 244 246 248 249 248 242 236 233 233 234 234 233 233 234 235 237 238 239 239 241 242 244 245 247 248 250 251 253 256 257 259 261 263 266 269 272 274 277 279 282 285 288 289 288 287 285 285 288 292 296 300 303 305 307 308 311 313 315 316 313 311 312 314 314 315 317 318 318 317 316 317 318 319 322 322 320 316 314 314 315
253 255 259 262 262 256 247 244 243 243 245 248 249 247 244 239 237 236 236 237 237 237 238 238 240 241 242 243 244 246 247 249 250 252 253 255 257 259 262 264 267 269 271 272 274 277 280 283 285 286 285 284 283 283 286 291 295 299 302 304 305 307 309 311 313 314 313 311 310 312 314 314 315 316 317 317 316 316 316 317 318 320 321 321 318 316 314 315
249 251 253 257 260 258 250 244 243 243 244 245 248 249 248 246 242 239 238 238 239 241 242 242 243 244 246 248 250 251 253 255 257 258 259 261 262 263 265 267 268 269 270 271 273 277 280 282 282 282 280 280 282 285 289 294 298 301 302 303 304 306 309 311 312 311 309 308 309 312 315 316 317 318 319 318 316 315 315 316 317 318 319 319 319 317 315 314
246 248 250 253 256 257 253 246 243 243 243 244 246 249 251 250 247 244 241 240 240 241 242 244 245 245 247 248 250 252 255 257 259 261 261 262 263 263 264 265 266 267 268 270 273 276 278 278 277 277 277 280 284 289 293 297 299 301 301 302 304 306 308 309 309 308 307 308 311 314 317 319 318 319 321 319 316 314 313 314 316 317 317 318 319 318 316 315
244 245 246 249 252 255 254 249 244 242 243 244 245 248 251 253 253 249 245 243 242 241 242 243 244 245 246 246 247 248 249 251 252 254 257 258 260 261 261 262 264 266 268 269 272 272 272 272 273 275 280 286 291 294 296 298 299 299 300 301 303 305 307 307 306 305 305 308 312 316 319 320 319 320 322 322 319 314 312 313 315 316 317 317 317 318 317 315
241 243 244 245 248 253 253 250 246 243 241 242 244 247 249 252 255 255 252 247 245 243 243 243 244 244 245 246 246 246 246 247 248 249 251 253 256 259 260 261 263 266 267 267 267 266 267 270 275 281 287 291 294 295 296 296 296 297 299 301 303 305 305 303 303 304 305 308 314 318 319 321 321 322 325 325 322 317 312 311 312 314 316 316 315 315 315 314
239 241 242 244 245 249 252 251 247 243 242 241 243 245 247 251 254 257 261 257 249 245 243 243 243 243 244 245 245 246 246 247 249 251 252 252 254 257 260 262 264 265 264 263 262 263 267 274 281 286 290 292 292 293 293 293 294 295 298 301 304 303 301 300 302 303 305 310 316 320 323 324 325 326 327 326 323 319 315 312 310 311 313 314 313 312 311 312
236 239 241 242 244 246 250 252 249 245 243 241 242 244 245 249 252 257 266 264 255 250 246 243 243 243 243 244 245 246 247 249 251 253 255 256 256 257 259 261 262 262 261 260 261 266 273 279 284 286 288 289 289 289 290 291 293 295 298 302 302 298 298 299 301 304 307 311 316 320 323 326 329 330 329 328 325 323 320 317 313 311 310 310 309 309 309 310
234 237 240 241 243 244 247 251 251 247 244 241 242 243 244 247 250 258 268 261 254 252 249 247 245 244 244 244 245 245 247 249 251 252 254 255 255 256 257 259 259 258 258 260 265 271 276 279 281 283 285 285 286 287 288 290 292 295 299 301 297 294 295 298 300 304 308 311 314 318 320 323 326 326 327 328 329 328 325 320 316 313 309 307 306 306 307 310
233 235 238 240 242 243 245 249 251 249 246 243 242 242 244 246 248 258 261 254 253 256 257 256 254 252 251 250 249 248 247 247 248 249 251 252 252 254 256 257 257 258 260 264 269 273 275 277 278 280 282 283 285 286 287 288 290 295 299 297 292 292 294 296 299 304 307 309 311 315 317 320 322 321 321 323 326 328 328 324 320 316 312 308 306 306 307 309
232 234 236 238 241 242 243 246 249 250 248 245 244 244 245 245 249 256 256 254 258 264 263 263 263 261 259 258 257 256 254 252 250 249 250 251 252 254 256 257 258 259 262 265 267 270 273 275 276 278 279 281 283 284 285 286 288 294 296 291 288 291 293 295 300 305 308 309 310 312 315 318 320 320 319 321 323 326 328 326 322 319 316 313 310 308 308 308
232 233 234 236 239 241 242 244 247 250 250 248 246 245 245 246 252 254 253 255 260 263 265 269 271 270 268 264 260 260 259 258 256 254 253 254 254 254 255 257 258 259 261 264 267 269 272 273 275 276 277 278 279 281 283 283 287 292 291 285 286 288 289 294 300 304 307 308 308 310 313 316 319 318 318 319 321 322 323 322 320 319 317 316 314 311 309 308
231 232 234 235 237 240 241 242 245 247 249 250 248 247 247 248 251 252 252 254 258 262 268 273 276 276 273 267 262 260 259 258 258 257 256 256 256 257 257 258 259 260 261 263 266 267 269 271 272 273 274 276 277 279 280 281 286 289 285 283 285 284 285 292 296 300 304 306 306 307 309 311 314 315 314 315 316 318 320 319 317 316 315 314 314 313 313 311
232 232 233 235 236 238 239 241 243 245 248 250 249 248 247 247 249 251 251 253 256 261 267 271 274 275 273 269 266 264 260 258 257 257 256 256 255 256 257 257 258 259 260 262 263 266 268 269 270 271 271 273 274 275 276 279 284 284 280 281 283 282 284 288 291 295 299 301 301 303 304 306 309 311 311 311 313 316 318 318 317 314 312 311 311 312 314 314
232 232 233 234 236 238 238 240 242 244 246 248 249 247 244 245 248 251 251 253 255 259 264 268 270 272 273 272 270 268 264 261 258 257 257 256 255 255 256 257 257 258 260 262 264 268 271 272 271 270 270 269 270 271 274 278 279 277 278 282 282 282 284 287 290 293 295 297 298 299 300 302 305 308 308 309 311 314 315 315 315 313 311 311 310 310 312 313
230 231 233 234 236 237 238 239 240 242 244 247 249 246 243 245 249 251 252 252 254 256 260 264 267 269 271 273 273 272 271 267 263 260 258 257 257 258 258 259 259 260 262 264 266 269 272 273 273 271 268 265 266 269 273 275 273 273 278 282 282 283 285 287 289 291 294 295 296 297 298 299 302 304 306 307 308 311 311 311 311 311 311 311 309 308 309 310
229 230 232 234 236 236 237 238 239 241 242 245 248 247 246 247 249 251 251 251 251 253 257 261 264 266 268 271 274 276 276 273 268 265 262 260 259 259 260 260 261 262 264 265 268 269 271 273 273 270 266 264 265 268 270 270 270 275 279 281 282 283 285 288 290 291 292 294 294 295 295 296 299 301 302 303 306 308 308 307 307 308 309 308 306 306 306 306
230 229 231 234 235 235 236 236 238 239 240 244 248 248 247 247 248 250 251 250 250 251 254 257 261 263 266 269 272 275 277 276 273 271 267 264 262 260 261 262 263 264 265 267 269 270 271 272 270 267 265 265 265 265 265 268 273 277 279 281 282 282 284 287 289 291 292 292 293 293 293 294 296 299 300 301 304 306 306 305 304 305 306 306 305 305 305 305
231 229 230 233 234 235 235 235 236 238 239 243 246 246 246 247 248 250 251 252 251 250 252 254 257 260 264 267 270 273 276 276 276 276 272 269 266 263 262 263 263 264 265 267 269 270 270 270 268 264 264 264 263 263 266 271 275 277 278 280 281 282 284 285 287 290 291 292 293 293 292 292 294 297 298 299 302 304 304 303 303 304 306 306 304 304 304 304
232 231 231 232 234 235 235 234 235 236 238 241 245 246 246 247 249 250 252 253 252 251 251 253 255 257 260 264 267 270 273 276 277 278 275 272 270 268 265 264 264 265 266 267 269 270 270 270 267 262 261 263 264 267 271 273 275 278 279 280 280 282 284 285 288 290 292 294 295 295 295 293 293 296 296 297 301 302 301 301 302 304 306 305 305 305 304 303
233 232 233 233 233 234 234 233 233 235 236 240 244 245 247 248 249 250 251 253 254 253 253 253 254 256 258 261 264 267 270 273 276 277 277 275 274 272 270 268 267 267 267 267 269 269 269 268 266 262 261 264 267 271 272 273 276 279 280 280 281 283 285 287 291 292 294 296 295 297 299 296 294 296 297 298 301 300 299 300 301 303 305 304 305 305 304 303
230 231 233 234 234 234 234 232 232 234 235 239 243 244 245 247 249 250 251 253 254 254 254 254 254 255 256 258 261 263 266 269 273 275 276 277 277 276 274 272 270 268 268 267 268 269 268 267 266 263 262 265 268 271 273 274 277 278 280 281 282 285 288 291 293 294 297 297 295 299 302 296 295 298 297 298 300 299 299 300 301 303 304 304 304 304 302 302
228 229 231 234 234 233 233 232 231 232 234 238 241 243 244 245 247 249 250 252 253 254 254 254 254 255 255 256 258 259 262 265 268 271 274 277 278 279 277 275 273 271 269 268 268 268 268 267 265 264 264 265 268 271 273 275 276 278 280 282 285 288 290 293 295 297 298 295 297 302 301 295 297 298 296 298 300 299 298 299 301 303 303 304 305 304 303 304
228 228 230 232 233 232 232 231 231 232 233 236 240 242 243 245 246 248 249 251 252 253 254 255 255 255 255 255 255 256 258 261 264 267 271 274 277 279 278 277 276 274 273 270 268 268 268 267 265 265 265 265 267 270 272 275 277 279 281 283 287 289 291 292 295 296 295 298 303 303 299 298 298 296 296 300 300 298 298 299 300 301 301 302 303 304 305 306
230 229 231 232 233 232 231 230 230 231 233 235 239 242 243 244 245 246 247 249 251 252 253 254 255 256 255 254 254 254 256 258 260 263 267 271 274 277 279 279 278 276 275 272 270 269 268 266 266 266 265 266 267 270 273 276 279 280 282 285 287 288 289 291 293 293 295 304 308 301 300 305 299 295 299 301 299 297 297 298 300 302 302 303 303 304 307 310
231 231 231 233 233 231 231 230 229 230 232 234 236 240 242 243 244 245 246 248 249 251 252 253 254 255 256 254 253 253 254 256 258 260 263 266 270 275 279 279 277 276 275 274 272 271 268 267 266 267 266 267 268 271 275 277 279 281 284 286 286 287 288 288 289 291 296 306 305 299 305 308 297 296 302 302 299 299 299 300 304 305 306 307 308 309 312 314
230 231 232 234 234 232 231 231 229 228 229 232 233 237 240 241 243 245 246 247 248 249 251 252 252 253 254 254 254 254 254 255 257 258 260 263 267 272 275 276 277 277 275 274 274 272 270 268 268 268 268 269 271 273 275 277 279 281 282 284 285 287 285 285 288 292 297 302 301 301 307 303 296 300 304 300 299 301 302 306 310 310 310 311 312 314 316 317
229 229 232 234 235 234 232 232 231 228 229 231 232 235 238 241 243 245 246 247 248 249 250 251 252 252 252 254 254 255 255 255 256 258 259 261 264 267 271 274 277 277 276 275 274 273 272 270 269 270 270 272 273 274 275 277 278 279 281 283 283 281 280 283 288 292 294 297 299 302 304 298 297 303 302 298 300 302 305 310 312 310 311 311 313 315 316 316
230 229 230 233 235 235 234 233 233 231 229 230 231 234 237 240 243 245 246 247 248 248 249 250 252 252 252 253 254 256 256 256 256 258 259 260 261 264 268 271 273 275 276 275 274 273 272 270 270 272 273 273 273 273 274 275 276 278 281 280 276 276 279 284 288 289 292 296 298 299 298 295 297 300 298 297 301 303 307 310 309 308 308 308 310 313 313 314
232 230 229 230 233 235 235 235 235 233 231 231 231 233 236 239 242 244 245 246 246 248 249 250 252 253 253 254 255 256 256 256 256 257 258 259 260 261 264 267 270 273 274 274 273 273 272 270 270 273 273 272 273 275 275 275 277 280 278 274 274 278 283 286 286 288 291 295 296 295 295 294 295 296 296 297 299 301 303 304 304 304 303 304 307 309 311 312
235 233 231 229 231 233 233 234 236 235 233 232 232 233 235 238 241 242 244 244 245 246 248 249 250 251 252 253 254 254 254 254 255 255 256 258 259 259 261 264 267 269 271 271 271 272 272 271 271 274 274 271 273 277 279 279 280 277 272 273 278 283 284 284 286 288 290 292 293 294 293 293 293 294 295 295 296 297 299 299 300 300 301 302 305 306 308 310
Height
10811 10811 10810 10809 10809 10809 10810 10810 10809 10809 10808 10808 10806 10805 10805 10805 10805 10805 10804 10805 10806 10808 10809 10810 10812 10814 10817 10820 10822 10825 10827 10829 10831 10833 10834 10836 10837 10838 10838 10839 10840 10840 10840 10840 10840 10840 10840 10841 10841 10841 10841 10841 10841 10841 10840 10840 10839 10839 10838 10837 10836 10835 10833 10831 10830 10829 10828 10827 10825 10824 10822 10820 10818 10815 10812 10809 10806 10802 10799 10795 10792 10788 10784 10779 10775 10771 10767 10764
10812 10812 10811 10810 10810 10810 10811 10811 10811 10811 10811 10811 10811 10810 10810 10810 10810 10810 10810 10810 10811 10811 10813 10814 10815 10816 10818 10821 10823 10826 10828 10830 10832 10833 10835 10836 10837 10838 10839 10840 10840 10841 10841 10841 10841 10840 10840 10840 10840 10840 10840 10840 10840 10839 10839 10838 10837 10837 10836 10835 10834 10833 10831 10830 10830 10828 10827 10825 10824 10822 10820 10817 10815 10812 10809 10806 10803 10799 10795 10792 10788 10784 10780 10776 10772 10768 10764 10761
10813 10812 10812 10811 10811 10811 10812 10812 10812 10812 10812 10813 10814 10814 10814 10814 10814 10815 10815 10816 10816 10817 10817 10818 10819 10820 10821 10822 10824 10825 10827 10828 10830 10832 10834 10835 10836 10837 10838 10838 10839 10839 10840 10840 10841 10841 10840 10840 10840 10840 10839 10839 10838 10837 10837 10836 10836 10835 10834 10834 10833 10832 10831 10830 10828 10827 10825 10824 10821 10819 10817 10814 10811 10809 10806 10803 10799 10796 10792 10788 10784 10780 10776 10772 10769 10765 10762 10759
10813 10812 10812 10811 10811 10812 10812 10813 10813 10813 10814 10814 10814 10815 10816 10817 10817 10817 10818 10819 10820 10820 10821 10822 10823 10823 10823 10824 10824 10826 10827 10828 10829 10831 10832 10833 10834 10835 10836 10837 10837 10837 10837 10838 10839 10839 10839 10839 10839 10839 10838 10837 10836 10836 10836 10835 10834 10833 10833 10833 10832 10831 10830 10828 10827 10825 10823 10821 10819 10816 10813 10811 10808 10805 10802 10799 10795 10792 10788 10784 10780 10776 10773 10769 10766 10762 10759 10756
10813 10812 10812 10811 10811 10812 10813 10813 10814 10814 10815 10815 10815 10816 10817 10818 10819 10819 10820 10821 10822 10823 10823 10824 10825 10825 10825 10826 10826 10827 10827 10828 10828 10829 10830 10831 10832 10833 10834 10835 10835 10835 10835 10836 10837 10837 10837 10837 10837 10837 10837 10837 10836 10835 10834 10833 10833 10832 10832 10831 10830 10829 10827 10826 10825 10823 10821 10818 10816 10813 10810 10807 10804 10801 10798 10795 10791 10788 10784 10781 10777 10773 10769 10766 10763 10760 10757 10754
10813 10812 10812 10811 10812 10812 10812 10813 10814 10814 10815 10816 10816 10817 10817 10818 10819 10820 10821 10822 10823 10824 10825 10826 10826 10827 10828 10828 10828 10829 10829 10829 10829 10828 10829 10830 10831 10832 10833 10833 10834 10834 10834 10835 10835 10835 10835 10835 10835 10836 10836 10835 10835 10834 10833 10832 10832 10831 10830 10829 10828 10827 10826 10824 10822 10820 10818 10815 10813 10810 10807 10803 10800 10797 10794 10791 10788 10784 10781 10777 10773 10769 10766 10763 10760 10757 10754 10752
10812 10811 10811 10811 10812 10812 10812 10813 10814 10815 10815 10816 10817 10817 10818 10819 10820 10821 10822 10823 10824 10825 10826 10827 10828 10828 10829 10829 10830 10830 10831 10830 10830 10830 10830 10830 10831 10832 10832 10833 10833 10834 10834 10834 10834 10834 10834 10834 10834 10834 10834 10833 10833 10832 10831 10830 10830 10829 10828 10827 10826 10825 10824 10822 10820 10817 10815 10812 10809 10806 10803 10799 10796 10793 10790 10787 10784 10781 10777 10773 10770 10767 10763 10760 10757 10755 10752 10750
10811 10810 10810 10810 10811 10811 10812 10812 10813 10814 10815 10816 10817 10817 10818 10819 10820 10821 10822 10823 10824 10825 10826 10827 10828 10829 10830 10830 10831 10831 10832 10832 10832 10832 10831 10832 10832 10832 10832 10833 10833 10833 10834 10834 10834 10834 10834 10833 10833 10833 10832 10832 10831 10830 10829 10828 10828 10827 10827 10826 10825 10823 10821 10819 10817 10814 10812 10809 10806 10803 10799 10796 10793 10790 10786 10783 10780 10777 10773 10770 10767 10764 10761 10758 10755 10752 10750 10748
10810 10809 10809 10809 10810 10811 10811 10812 10812 10813 10814 10815 10816 10817 10818 10818 10819 10821 10822 10823 10824 10825 10826 10827 10828 10829 10830 10830 10831 10832 10832 10833 10833 10834 10834 10834 10834 10833 10833 10833 10833 10833 10834 10834 10833 10833 10833 10832 10832 10831 10831 10830 10829 10828 10827 10827 10826 10826 10825 10823 10822 10820 10818 10816 10814 10811 10808 10805 10802 10799 10795 10792 10789 10787 10783 10780 10777 10773 10770 10767 10764 10761 10758 10756 10753 10750 10748 10746
10810 10808 10808 10807 10808 10809 10810 10811 10811 10812 10813 10814 10815 10816 10817 10818 10818 10819 10821 10822 10823 10824 10825 10826 10827 10827 10828 10829 10830 10831 10832 10832 10833 10834 10834 10834 10834 10834 10834 10834 10834 10833 10833 10832 10832 10832 10832 10831 10830 10829 10829 10828 10827 10826 10825 10825 10824 10823 10822 10821 10819 10818 10816 10813 10811 10808 10804 10800 10797 10795 10792 10789 10786 10783 10780 10776 10773 10770 10767 10764 10761 10758 10756 10753 10751 10748 10746 10744
10809 10808 10807 10806 10806 10807 10808 10809 10810 10811 10812 10813 10814 10815 10816 10817 10817 10818 10819 10820 10821 10822 10824 10825 10826 10827 10827 10828 10829 10830 10830 10831 10832 10833 10833 10833 10833 10834 10833 10833 10833 10832 10831 10831 10830 10830 10830 10829 10829 10828 10827 10826 10825 10825 10824 10823 10822 10821 10819 10818 10816 10814 10812 10809 10807 10804 10800 10797 10794 10792 10790 10787 10783 10780 10777 10773 10770 10767 10764 10761 10758 10756 10753 10750 10748 10746 10744 10742
10809 10808 10806 10806 10805 10806 10806 10807 10808 10809 10810 10811 10812 10813 10814 10815 10816 10817 10818 10819 10819 10820 10821 10823 10824 10825 10826 10826 10827 10828 10829 10830 10830 10831 10831 10831 10832 10831 10831 10831 10830 10830 10829 10829 10828 10828 10828 10827 10827 10826 10825 10824 10823 10822 10821 10820 10819 10818 10817 10815 10813 10810 10808 10805 10803 10800 10797 10794 10790 10788 10787 10784 10780 10777 10773 10770 10767 10764 10762 10759 10756 10753 10750 10748 10746 10743 10741 10740
10807 10806 10806 10805 10804 10804 10805 10805 10807 10807 10808 10810 10811 10811 10812 10813 10814 10815 10816 10817 10818 10819 10820 10821 10822 10823 10823 10824 10825 10826 10827 10827 10828 10828 10829 10829 10829 10829 10828 10828 10828 10828 10827 10827 10826 10826 10825 10825 10824 10823 10822 10822 10821 10820 10819 10818 10816 10815 10813 10811 10809 10807 10804 10802 10799 10797 10794 10791 10787 10785 10784 10782 10778 10774 10770 10767 10765 10762 10759 10756 10754 10751 10748 10746 10743 10741 10739 10738
10806 10805 10804 10804 10803 10803 10803 10803 10804 10805 10806 10807 10808 10809 10810 10811 10812 10813 10814 10815 10816 10818 10818 10819 10820 10821 10821 10822 10823 10823 10824 10825 10825 10826 10826 10826 10826 10826 10826 10825 10825 10825 10824 10824 10824 10823 10823 10822 10821 10821 10820 10819 10818 10817 10816 10814 10813 10811 10809 10807 10805 10803 10801 10799 10796 10794 10790 10787 10784 10783 10781 10778 10775 10771 10768 10765 10763 10759 10757 10754 10751 10749 10746 10744 10741 10739 10738 10736
10804 10803 10803 10802 10801 10801 10801 10801 10802 10803 10804 10805 10806 10807 10808 10809 10810 10810 10811 10812 10814 10815 10816 10817 10818 10819 10820 10820 10820 10821 10821 10822 10823 10823 10823 10823 10823 10823 10823 10823 10823 10822 10822 10822 10821 10820 10820 10819 10819 10818 10817 10816 10815 10814 10812 10810 10809 10807 10806 10804 10802 10800 10798 10796 10794 10791 10788 10784 10782 10780 10779 10775 10771 10769 10766 10763 10760 10757 10754 10752 10749 10747 10744 10742 10740 10738 10736 10735
10803 10802 10801 10800 10800 10799 10799 10799 10800 10801 10802 10803 10804 10805 10805 10806 10807 10808 10809 10810 10811 10812 10813 10814 10815 10816 10817 10818 10818 10818 10819 10819 10820 10820 10821 10821 10821 10821 10821 10820 10820 10820 10819 10819 10818 10817 10817 10816 10815 10815 10814 10813 10812 10810 10809 10807 10806 10804 10803 10801 10799 10797 10796 10793 10791 10788 10785 10782 10779 10777 10777 10772 10768 10766 10764 10761 10758 10755 10752 10750 10747 10745 10742 10740 10738 10736 10735 10733
10801 10800 10799 10799 10798 10797 10797 10797 10797 10798 10800 10801 10802 10802 10803 10804 10804 10805 10806 10807 10808 10809 10810 10811 10812 10813 10814 10814 10815 10816 10816 10817 10817 10818 10818 10818 10818 10818 10818 10818 10817 10817 10816 10816 10815 10814 10813 10813 10812 10811 10811 10810 10809 10807 10806 10804 10803 10801 10800 10798 10796 10794 10793 10791 10788 10785 10781 10779 10776 10774 10774 10770 10765 10763 10761 10758 10755 10752 10750 10747 10744 10742 10740 10738 10736 10735 10733 10732
10798 10798 10797 10797 10796 10796 10795 10795 10795 10796 10797 10798 10800 10800 10801 10802 10802 10803 10804 10805 10805 10807 10807 10808 10809 10810 10811 10811 10812 10813 10813 10814 10815 10815 10815 10815 10815 10815 10815 10814 10814 10813 10813 10812 10812 10811 10810 10810 10809 10808 10808 10807 10806 10804 10803 10801 10800 10798 10797 10795 10793 10791 10790 10788 10786 10782 10778 10776 10773 10771 10770 10767 10763 10760 10757 10755 10753 10750 10747 10745 10742 10740 10738 10736 10735 10733 10732 10731
10795 10795 10795 10794 10794 10793 10793 10793 10793 10793 10794 10795 10797 10798 10799 10799 10800 10801 10802 10802 10803 10804 10804 10805 10806 10807 10808 10808 10809 10810 10810 10811 10811 10812 10812 10812 10812 10812 10811 10811 10811 10810 10810 10809 10808 10808 10807 10807 10806 10805 10805 10804 10803 10801 10800 10798 10797 10795 10793 10792 10790 10788 10786 10785 10782 10779 10775 10772 10770 10768 10766 10763 10761 10758 10755 10752 10750 10748 10745 10743 10740 10738 10736 10735 10733 10732 10731 10729
10793 10793 10793 10792 10792 10791 10791 10790 10790 10790 10791 10792 10793 10794 10796 10797 10798 10798 10799 10800 10800 10801 10801 10802 10803 10804 10804 10805 10806 10806 10807 10807 10808 10808 10809 10809 10809 10808 10808 10808 10807 10807 10806 10806 10805 10805 10805 10804 10803 10802 10802 10801 10800 10799 10797 10795 10794 10792 10790 10789 10787 10784 10783 10781 10779 10776 10773 10769 10766 10764 10762 10760 10758 10756 10753 10750 10747 10745 10743 10741 10739 10737 10735 10733 10732 10731 10729 10728
10790 10790 10790 10790 10789 10789 10789 10788 10788 10788 10788 10788 10789 10790 10792 10793 10794 10795 10796 10797 10797 10798 10799 10799 10800 10800 10801 10802 10803 10803 10804 10804 10804 10805 10805 10805 10805 10805 10805 10805 10804 10804 10803 10803 10802 10802 10802 10801 10800 10800 10799 10798 10797 10796 10794 10792 10791 10789 10787 10785 10783 10781 10779 10777 10774 10772 10770 10767 10763 10761 10760 10757 10754 10752 10750 10748 10745 10743 10742 10739 10737 10735 10734 10732 10730 10729 10728 10726
10788 10788 10788 10787 10787 10787 10786 10786 10786 10786 10786 10786 10786 10787 10788 10789 10790 10791 10792 10793 10794 10795 10796 10797 10797 10798 10798 10799 10799 10800 10800 10801 10801 10801 10801 10802 10802 10801 10801 10801 10801 10801 10801 10800 10800 10799 10799 10798 10798 10797 10796 10795 10794 10793 10791 10789 10787 10786 10784 10782 10780 10778 10776 10774 10771 10768 10766 10764 10762 10759 10756 10755 10752 10749 10747 10746 10744 10742 10740 10738 10736 10734 10732 10730 10729 10728 10726 10724
10785 10785 10785 10784 10784 10784 10784 10784 10784 10784 10784 10784 10784 10784 10784 10785 10786 10787 10788 10790 10791 10792 10792 10793 10794 10795 10795 10796 10797 10797 10797 10797 10798 10798 10798 10798 10798 10798 10798 10798 10799 10798 10798 10797 10797 10797 10796 10796 10795 10794 10793 10792 10791 10789 10788 10786 10784 10782 10780 10779 10777 10775 10773 10770 10768 10766 10763 10761 10759 10757 10754 10751 10750 10748 10746 10744 10742 10740 10738 10736 10734 10732 10730 10729 10727 10726 10724 10723
10781 10781 10782 10781 10781 10781 10781 10781 10782 10782 10781 10781 10781 10781 10782 10782 10783 10783 10784 10785 10787 10788 10789 10790 10790 10791 10792 10793 10793 10793 10794 10794 10794 10794 10795 10795 10795 10795 10795 10795 10796 10796 10795 10795 10794 10794 10793 10793 10792 10791 10790 10789 10788 10786 10784 10783 10781 10779 10777 10776 10774 10772 10769 10767 10765 10763 10761 10759 10756 10754 10752 10748 10746 10745 10744 10742 10740 10738 10736 10734 10732 10730 10728 10727 10725 10724 10722 10721
10777 10778 10778 10778 10778 10778 10778 10779 10779 10779 10779 10779 10779 10779 10779 10779 10780 10780 10781 10782 10783 10784 10785 10786 10787 10787 10788 10788 10789 10789 10790 10791 10791 10791 10791 10791 10792 10792 10792 10792 10793 10792 10792 10792 10792 10791 10791 10790 10789 10788 10787 10786 10785 10783 10781 10779 10777 10776 10775 10773 10771 10769 10766 10764 10762 10760 10758 10757 10754 10751 10749 10747 10743 10742 10742 10741 10738 10736 10734 10732 10730 10728 10727 10725 10723 10722 10720 10719
10773 10774 10774 10775 10775 10775 10775 10775 10776 10777 10777 10777 10777 10777 10777 10777 10777 10778 10778 10778 10779 10780 10781 10782 10783 10783 10784 10784 10785 10785 10786 10787 10787 10788 10788 10788 10788 10789 10789 10789 10789 10789 10789 10789 10789 10788 10787 10787 10786 10785 10784 10783 10781 10780 10778 10776 10774 10773 10771 10770 10768 10766 10763 10760 10759 10757 10755 10754 10753 10750 10747 10745 10742 10740 10740 10739 10737 10735 10732 10730 10728 10726 10725 10723 10721 10720 10718 10717
10768 10769 10770 10771 10771 10772 10772 10772 10773 10774 10774 10775 10775 10774 10774 10774 10775 10775 10775 10776 10776 10776 10777 10778 10778 10779 10779 10780 10781 10782 10782 10783 10783 10783 10784 10784 10785 10786 10786 10786 10786 10786 10786 10786 10785 10785 10784 10784 10783 10782 10781 10779 10778 10776 10774 10773 10772 10770 10768 10767 10765 10762 10760 10758 10755 10754 10752 10751 10751 10749 10746 10744 10741 10738 10737 10736 10734 10733 10731 10728 10726 10725 10723 10721 10719 10718 10716 10715
10764 10765 10766 10767 10768 10768 10768 10769 10770 10770 10771 10772 10772 10772 10772 10772 10772 10773 10773 10773 10773 10772 10773 10773 10773 10774 10775 10776 10777 10778 10778 10778 10779 10779 10780 10781 10781 10782 10782 10782 10783 10783 10783 10783 10782 10782 10781 10780 10779 10778 10777 10775 10774 10773 10772 10770 10769 10767 10766 10764 10762 10759 10757 10755 10753 10751 10749 10749 10748 10747 10745 10743 10740 10737 10735 10733 10731 10730 10728 10727 10725 10723 10721 10719 10717 10715 10714 10712
10760 10761 10762 10763 10764 10765 10765 10766 10766 10767 10769 10769 10769 10770 10770 10770 10770 10770 10771 10771 10769 10768 10769 10769 10769 10770 10770 10771 10772 10773 10773 10774 10775 10775 10776 10777 10777 10778 10778 10779 10779 10780 10780 10779 10778 10778 10778 10776 10775 10774 10773 10772 10771 10770 10769 10768 10766 10764 10763 10761 10759 10757 10755 10752 10751 10748 10746 10745 10745 10745 10743 10742 10740 10738 10735 10732 10729 10727 10725 10724 10722 10720 10718 10717 10715 10713 10712 10711
10756 10757 10758 10759 10759 10760 10762 10762 10763 10764 10765 10766 10766 10767 10767 10768 10768 10769 10769 10767 10764 10764 10765 10765 10766 10766 10766 10767 10767 10768 10769 10769 10770 10771 10772 10773 10773 10774 10775 10775 10776 10776 10776 10776 10775 10774 10773 10773 10772 10771 10770 10769 10768 10767 10766 10764 10763 10761 10760 10758 10756 10754 10752 10750 10748 10746 10743 10741 10741 10742 10741 10740 10738 10737 10735 10732 10729 10727 10724 10722 10720 10717 10715 10714 10713 10711 10710 10709
10751 10752 10753 10754 10755 10756 10757 10758 10759 10760 10761 10762 10763 10764 10764 10765 10766 10767 10765 10762 10760 10761 10762 10762 10763 10763 10763 10764 10764 10764 10765 10765 10766 10767 10768 10769 10769 10770 10771 10771 10772 10772 10772 10771 10771 10770 10770 10769 10769 10768 10767 10766 10765 10764 10762 10761 10760 10759 10757 10756 10754 10752 10750 10748 10745 10744 10741 10738 10738 10738 10738 10738 10737 10734 10732 10731 10729 10727 10723 10720 10717 10715 10713 10711 10710 10709 10708 10707
10746 10748 10749 10750 10751 10752 10753 10754 10755 10756 10757 10758 10759 10761 10761 10762 10764 10763 10759 10757 10758 10759 10759 10759 10759 10760 10760 10761 10761 10761 10762 10762 10763 10764 10764 10765 10766 10766 10766 10767 10767 10767 10767 10767 10767 10767 10767 10766 10765 10764 10763 10762 10761 10760 10759 10758 10757 10756 10754 10753 10752 10750 10748 10745 10743 10741 10738 10734 10733 10734 10735 10735 10735 10732 10729 10728 10727 10725 10722 10718 10715 10713 10711 10709 10708 10707 10706 10705
10741 10742 10743 10745 10746 10747 10749 10750 10750 10752 10753 10754 10756 10757 10758 10760 10760 10757 10754 10755 10757 10756 10756 10756 10757 10757 10757 10758 10758 10758 10759 10759 10759 10760 10760 10761 10762 10762 10762 10762 10762 10763 10763 10763 10763 10764 10763 10761 10760 10760 10759 10758 10758 10757 10755 10754 10754 10753 10751 10751 10749 10748 10746 10743 10741 10739 10736 10732 10728 10728 10730 10731 10731 10730 10727 10725 10724 10723 10721 10718 10714 10711 10709 10706 10705 10704 10703 10702
10735 10737 10738 10740 10741 10743 10744 10745 10746 10748 10748 10750 10753 10754 10756 10758 10754 10750 10751 10753 10754 10753 10753 10754 10754 10754 10755 10755 10755 10755 10755 10756 10756 10756 10756 10757 10757 10757 10758 10758 10757 10758 10759 10759 10759 10759 10759 10757 10756 10755 10755 10754 10754 10753 10752 10751 10750 10749 10748 10748 10746 10746 10745 10742 10740 10738 10736 10731 10725 10723 10724 10726 10727 10727 10725 10723 10722 10721 10720 10716 10713 10710 10707 10704 10701 10700 10700 10699
10730 10731 10733 10735 10736 10738 10739 10741 10742 10743 10745 10747 10749 10751 10753 10752 10747 10746 10749 10750 10751 10750 10750 10751 10751 10751 10751 10751 10751 10751 10752 10752 10752 10752 10753 10753 10753 10753 10753 10753 10753 10753 10754 10755 10755 10754 10754 10753 10751 10750 10750 10750 10750 10749 10748 10748 10747 10746 10745 10745 10744 10743 10742 10740 10738 10736 10735 10732 10725 10720 10719 10720 10723 10723 10722 10721 10720 10719 10717 10714 10711 10708 10705 10701 10698 10697 10697 10696
10724 10726 10728 10729 10731 10732 10735 10736 10737 10739 10741 10743 10745 10748 10748 10745 10742 10742 10745 10747 10748 10748 10747 10748 10748 10748 10748 10748 10748 10747 10747 10748 10748 10749 10749 10749 10749 10749 10749 10748 10749 10749 10750 10750 10750 10751 10750 10749 10746 10745 10746 10746 10746 10745 10745 10744 10744 10744 10742 10741 10740 10740 10739 10738 10736 10734 10733 10732 10726 10720 10716 10715 10717 10718 10718 10718 10717 10716 10714 10712 10709 10706 10702 10699 10696 10694 10693 10693
10718 10720 10723 10724 10725 10728 10730 10731 10733 10735 10738 10739 10742 10743 10742 10740 10738 10739 10741 10743 10744 10744 10744 10744 10744 10745 10745 10744 10744 10744 10744 10744 10744 10745 10745 10745 10746 10746 10745 10744 10744 10745 10745 10745 10746 10747 10746 10745 10743 10741 10742 10742 10741 10741 10741 10740 10741 10741 10739 10738 10737 10737 10736 10734 10733 10731 10730 10729 10726 10719 10713 10711 10713 10714 10713 10713 10714 10714 10712 10709 10707 10704 10701 10697 10693 10691 10690 10689
10711 10714 10717 10718 10720 10723 10724 10726 10729 10731 10734 10736 10738 10737 10736 10736 10734 10734 10737 10739 10740 10741 10741 10740 10740 10741 10741 10741 10741 10740 10741 10740 10740 10740 10740 10740 10742 10742 10740 10740 10740 10740 10741 10741 10742 10742 10742 10741 10740 10738 10737 10738 10737 10738 10738 10737 10738 10738 10736 10735 10734 10734 10733 10731 10730 10729 10727 10726 10725 10720 10711 10707 10709 10710 10709 10709 10710 10711 10709 10706 10704 10701 10699 10696 10692 10689 10688 10686
10705 10708 10711 10712 10714 10717 10718 10721 10724 10727 10731 10734 10733 10731 10731 10730 10728 10729 10732 10734 10736 10737 10737 10737 10737 10737 10737 10737 10737 10737 10737 10737 10736 10736 10736 10736 10737 10737 10735 10735 10736 10736 10736 10737 10738 10738 10738 10738 10737 10734 10733 10734 10734 10734 10735 10734 10735 10735 10733 10732 10731 10730 10730 10729 10726 10725 10724 10723 10722 10720 10712 10704 10704 10706 10705 10705 10706 10706 10705 10702 10700 10698 10696 10694 10691 10688 10685 10682
10698 10702 10704 10704 10707 10710 10713 10717 10720 10724 10728 10728 10726 10725 10725 10724 10723 10725 10727 10729 10732 10733 10733 10733 10733 10733 10734 10734 10734 10734 10734 10733 10732 10733 10732 10732 10732 10732 10731 10731 10731 10731 10732 10733 10733 10734 10734 10734 10735 10732 10730 10731 10731 10731 10732 10732 10731 10731 10730 10729 10727 10727 10727 10726 10724 10722 10720 10719 10717 10717 10712 10702 10701 10703 10702 10701 10702 10702 10700 10697 10695 10694 10692 10690 10688 10686 10683 10680
10692 10697 10697 10696 10700 10704 10707 10712 10716 10719 10722 10722 10720 10719 10719 10719 10720 10721 10722 10724 10727 10728 10729 10729 10730 10730 10730 10730 10730 10730 10730 10730 10729 10729 10729 10728 10728 10728 10727 10727 10727 10727 10728 10729 10729 10730 10730 10731 10732 10730 10727 10727 10727 10728 10729 10729 10727 10726 10726 10725 10724 10724 10723 10722 10722 10719 10716 10715 10712 10712 10710 10700 10697 10700 10699 10698 10699 10698 10696 10694 10691 10689 10687 10685 10684 10682 10681 10678
10687 10692 10688 10687 10693 10697 10701 10707 10711 10713 10717 10717 10715 10714 10714 10715 10715 10716 10718 10719 10721 10723 10724 10725 10726 10726 10726 10726 10726 10726 10727 10726 10726 10726 10725 10725 10724 10724 10724 10723 10723 10724 10724 10725 10725 10726 10727 10727 10728 10727 10725 10724 10724 10724 10725 10724 10723 10722 10722 10721 10720 10720 10719 10718 10719 10716 10713 10711 10706 10707 10707 10696 10691 10696 10695 10693 10695 10693 10690 10689 10686 10685 10683 10681 10680 10678 10676 10674
10680 10682 10679 10679 10686 10691 10696 10703 10706 10709 10712 10711 10708 10708 10709 10710 10710 10712 10714 10714 10716 10718 10719 10720 10721 10722 10722 10723 10722 10723 10723 10723 10722 10722 10722 10721 10721 10721 10720 10720 10720 10720 10720 10721 10721 10722 10723 10724 10724 10724 10723 10721 10721 10720 10720 10720 10720 10719 10718 10717 10717 10716 10715 10714 10714 10712 10711 10708 10702 10704 10705 10692 10685 10690 10689 10688 10690 10687 10685 10684 10682 10681 10679 10677 10676 10675 10672 10671
10669 10671 10671 10674 10680 10685 10691 10698 10701 10702 10704 10703 10701 10703 10704 10705 10705 10707 10708 10709 10711 10712 10714 10715 10716 10717 10717 10718 10718 10719 10719 10719 10719 10719 10718 10718 10718 10718 10717 10717 10716 10716 10716 10717 10717 10718 10719 10720 10720 10720 10719 10719 10717 10716 10717 10716 10716 10715 10714 10713 10713 10712 10711 10710 10709 10708 10707 10704 10699 10701 10701 10692 10684 10684 10683 10684 10685 10682 10679 10679 10678 10677 10675 10673 10671 10670 10668 10667
10657 10662 10665 10667 10672 10679 10686 10691 10693 10695 10697 10697 10696 10697 10699 10700 10701 10702 10703 10704 10705 10706 10708 10710 10711 10712 10712 10713 10714 10714 10715 10715 10715 10715 10715 10715 10715 10714 10714 10714 10713 10713 10713 10713 10713 10714 10715 10716 10716 10716 10716 10715 10714 10713 10713 10712 10712 10712 10711 10709 10709 10708 10706 10705 10705 10704 10702 10700 10699 10696 10695 10693 10685 10679 10679 10681 10680 10677 10675 10674 10674 10673 10672 10670 10668 10666 10664 10663
10650 10656 10659 10659 10664 10673 10679 10683 10686 10688 10690 10691 10691 10691 10693 10694 10695 10695 10697 10699 10699 10701 10702 10704 10705 10706 10707 10708 10709 10709 10710 10711 10711 10712 10711 10711 10711 10711 10711 10711 10711 10710 10710 10710 10710 10710 10711 10711 10711 10711 10712 10711 10711 10710 10710 10709 10709 10708 10707 10706 10705 10703 10702 10701 10701 10700 10697 10698 10698 10691 10689 10691 10684 10675 10676 10677 10674 10673 10672 10670 10670 10669 10667 10667 10666 10663 10662 10660
10643 10650 10653 10652 10655 10664 10670 10674 10678 10681 10682 10682 10684 10684 10686 10687 10688 10689 10692 10693 10693 10694 10696 10698 10700 10700 10700 10701 10702 10704 10705 10706 10707 10708 10708 10707 10708 10708 10708 10708 10707 10707 10707 10706 10706 10707 10707 10707 10707 10707 10707 10707 10707 10707 10707 10706 10705 10704 10703 10702 10700 10699 10698 10697 10696 10695 10695 10696 10695 10687 10685 10687 10681 10674 10675 10673 10669 10669 10668 10667 10667 10665 10663 10663 10662 10660 10659 10657
10635 10642 10644 10642 10645 10654 10662 10666 10668 10671 10671 10673 10676 10677 10678 10680 10682 10683 10685 10685 10687 10689 10690 10692 10693 10693 10693 10695 10697 10699 10700 10702 10703 10703 10703 10704 10705 10705 10705 10704 10704 10704 10703 10703 10703 10703 10704 10703 10703 10703 10703 10703 10704 10704 10703 10703 10702 10701 10700 10699 10696 10694 10693 10692 10692 10692 10692 10693 10691 10686 10684 10682 10677 10675 10674 10670 10667 10666 10664 10663 10664 10661 10660 10659 10658 10657 10656 10654
10626 10631 10634 10634 10637 10646 10653 10655 10656 10661 10664 10666 10670 10673 10674 10676 10677 10677 10677 10679 10682 10683 10685 10686 10685 10685 10687 10689 10692 10694 10695 10696 10698 10698 10699 10701 10701 10701 10701 10701 10701 10700 10700 10700 10700 10700 10700 10700 10699 10698 10699 10699 10700 10700 10699 10699 10699 10698 10697 10696 10693 10689 10687 10688 10689 10688 10688 10689 10687 10685 10682 10677 10673 10674 10672 10667 10666 10665 10662 10662 10661 10659 10657 10655 10654 10654 10652 10651
10616 10621 10624 10625 10629 10636 10642 10643 10646 10653 10657 10659 10665 10669 10668 10668 10670 10670 10670 10673 10675 10676 10679 10680 10677 10677 10681 10684 10687 10690 10690 10690 10693 10694 10696 10697 10697 10697 10698 10697 10697 10697 10697 10696 10696 10696 10697 10696 10695 10694 10695 10696 10695 10695 10695 10695 10695 10695 10694 10691 10687 10684 10684 10685 10686 10684 10684 10685 10684 10682 10679 10674 10671 10671 10669 10665 10664 10663 10661 10660 10659 10657 10655 10653 10652 10651 10649 10648
10604 10609 10611 10614 10618 10624 10630 10634 10636 10642 10648 10655 10661 10662 10660 10661 10662 10660 10660 10665 10668 10670 10672 10672 10669 10671 10677 10680 10682 10683 10682 10684 10688 10689 10691 10693 10693 10694 10694 10694 10693 10693 10693 10693 10693 10692 10692 10692 10691 10691 10692 10692 10690 10691 10691 10691 10693 10693 10689 10683 10680 10681 10683 10682 10681 10680 10680 10681 10680 10678 10675 10672 10669 10668 10665 10663 10662 10661 10659 10658 10656 10654 10653 10651 10649 10648 10646 10645
10591 10594 10598 10603 10607 10611 10618 10623 10625 10632 10644 10651 10651 10651 10652 10652 10650 10649 10653 10658 10661 10663 10664 10662 10662 10666 10671 10674 10675 10674 10675 10679 10682 10684 10687 10688 10688 10689 10690 10690 10690 10689 10689 10688 10688 10688 10688 10688 10687 10687 10688 10687 10686 10687 10687 10687 10691 10689 10682 10678 10677 10678 10679 10678 10677 10676 10676 10677 10676 10674 10671 10668 10666 10664 10662 10660 10659 10658 10656 10655 10653 10651 10649 10648 10647 10645 10644 10642